TimeEET,TemperatureF,Dew PointF,Humidity,Sea Level PressureIn,VisibilityMPH,Wind Direction,Wind SpeedMPH,Gust SpeedMPH,PrecipitationIn,Events,Conditions,WindDirDegrees,DateUTC
12:20 AM,21.2,21.2,100,30.18,-9999.0,Calm,Calm,-,N/A,Fog,Light Freezing Fog,0,2013-02-26 22:20:00
12:50 AM,21.2,19.4,93,30.18,-9999.0,Variable,1.2,-,N/A,Fog,Light Freezing Fog,0,2013-02-26 22:50:00
1:20 AM,21.2,19.4,93,30.15,0.3,Variable,2.3,-,N/A,Fog,Light Freezing Fog,0,2013-02-26 23:20:00
1:50 AM,21.2,19.4,93,30.15,0.3,Variable,2.3,-,N/A,Fog,Light Freezing Fog,0,2013-02-26 23:50:00
2:00 AM,20,20,100,,0,West,3.5,,,Fog,Heavy Fog,260,2013-02-27 00:00:00
2:20 AM,19.4,19.4,100,30.15,0.3,Variable,2.3,-,N/A,Fog,Light Freezing Fog,0,2013-02-27 00:20:00
2:50 AM,19.4,19.4,100,30.15,0.3,WSW,3.5,-,N/A,Fog,Light Freezing Fog,250,2013-02-27 00:50:00
3:20 AM,19.4,19.4,100,30.15,0.3,Variable,2.3,-,N/A,Fog,Light Freezing Fog,0,2013-02-27 01:20:00
3:50 AM,19.4,17.6,93,30.12,0.3,WSW,3.5,-,N/A,Fog,Light Freezing Fog,250,2013-02-27 01:50:00
4:20 AM,17.6,17.6,100,30.12,0.3,WSW,3.5,-,N/A,Fog,Light Freezing Fog,240,2013-02-27 02:20:00
4:50 AM,17.6,17.6,100,30.12,0.3,Calm,Calm,-,N/A,Fog,Light Freezing Fog,0,2013-02-27 02:50:00
5:20 AM,17.6,17.6,100,30.12,0.3,Variable,2.3,-,N/A,Fog,Light Freezing Fog,0,2013-02-27 03:20:00
5:50 AM,17.6,17.6,100,30.12,0.3,Variable,2.3,-,N/A,Fog,Light Freezing Fog,0,2013-02-27 03:50:00
6:20 AM,17.6,15.8,93,30.12,0.2,Calm,Calm,-,N/A,Fog,Light Freezing Fog,0,2013-02-27 04:20:00
6:50 AM,17.6,17.6,100,30.12,0.2,Calm,Calm,-,N/A,Fog,Light Freezing Fog,0,2013-02-27 04:50:00
7:20 AM,19.4,19.4,100,30.12,0.2,Calm,Calm,-,N/A,Fog,Light Freezing Fog,0,2013-02-27 05:20:00
7:50 AM,17.6,17.6,100,30.12,0.2,Variable,2.3,-,N/A,Fog,Light Freezing Fog,0,2013-02-27 05:50:00
8:00 AM,18,18,99,,0,WSW,2.3,,,Fog,Heavy Fog,240,2013-02-27 06:00:00
8:20 AM,19.4,17.6,93,30.12,0.3,Variable,1.2,-,N/A,Fog,Light Freezing Fog,0,2013-02-27 06:20:00
8:50 AM,19.4,19.4,100,30.12,0.3,Calm,Calm,-,N/A,Fog,Light Freezing Fog,0,2013-02-27 06:50:00
9:20 AM,19.4,19.4,100,30.09,0.3,Variable,1.2,-,N/A,Fog,Light Freezing Fog,0,2013-02-27 07:20:00
9:50 AM,19.4,19.4,100,30.09,-9999.0,Variable,2.3,-,N/A,Fog,Patches of Fog,0,2013-02-27 07:50:00
10:20 AM,21.2,21.2,100,30.09,1.0,Variable,1.2,-,N/A,Fog,Patches of Fog,0,2013-02-27 08:20:00
10:50 AM,23.0,23.0,100,30.09,1.4,Variable,1.2,-,N/A,,Mostly Cloudy,0,2013-02-27 08:50:00
11:20 AM,24.8,23.0,93,30.06,2.5,Variable,1.2,-,N/A,,Mostly Cloudy,0,2013-02-27 09:20:00
11:50 AM,23.0,23.0,100,30.06,2.8,NNE,3.5,-,N/A,,Mostly Cloudy,30,2013-02-27 09:50:00
12:20 PM,24.8,24.8,100,30.06,2.8,Variable,2.3,-,N/A,,Mostly Cloudy,0,2013-02-27 10:20:00
12:50 PM,26.6,26.6,100,30.04,2.8,Variable,2.3,-,N/A,,Mostly Cloudy,0,2013-02-27 10:50:00
1:20 PM,26.6,24.8,93,30.04,2.8,NNE,3.5,-,N/A,,Mostly Cloudy,20,2013-02-27 11:20:00
1:50 PM,26.6,24.8,93,30.04,2.8,NE,3.5,-,N/A,,Mostly Cloudy,50,2013-02-27 11:50:00
2:00 PM,26,26,98,,3,NE,3.5,,,,Mist,50,2013-02-27 12:00:00
2:20 PM,26.6,24.8,93,30.01,2.8,Variable,2.3,-,N/A,,Mostly Cloudy,0,2013-02-27 12:20:00
2:50 PM,26.6,26.6,100,30.01,2.8,Variable,2.3,-,N/A,,Mostly Cloudy,0,2013-02-27 12:50:00
3:20 PM,26.6,24.8,93,30.01,2.8,Variable,1.2,-,N/A,,Mostly Cloudy,0,2013-02-27 13:20:00
3:50 PM,28.4,26.6,93,30.01,2.8,Calm,Calm,-,N/A,,Mostly Cloudy,0,2013-02-27 13:50:00
4:20 PM,28.4,26.6,93,29.98,2.8,Variable,2.3,-,N/A,,Mostly Cloudy,0,2013-02-27 14:20:00
4:50 PM,28.4,26.6,93,29.98,2.5,Calm,Calm,-,N/A,,Overcast,0,2013-02-27 14:50:00
5:20 PM,28.4,26.6,93,29.98,2.8,NNW,3.5,-,N/A,,Mostly Cloudy,330,2013-02-27 15:20:00
5:50 PM,28.4,26.6,93,29.98,-9999.0,Variable,2.3,-,N/A,,Mostly Cloudy,0,2013-02-27 15:50:00
6:20 PM,28.4,26.6,93,29.98,-9999.0,NE,2.3,-,N/A,,Mostly Cloudy,40,2013-02-27 16:20:00
6:50 PM,28.4,28.4,100,29.98,4.3,ENE,3.5,-,N/A,,Mostly Cloudy,60,2013-02-27 16:50:00
7:20 PM,28.4,28.4,100,29.98,3.7,Variable,1.2,-,N/A,,Mostly Cloudy,0,2013-02-27 17:20:00
7:50 PM,30.2,28.4,93,29.95,4.3,NNE,4.6,-,N/A,,Mostly Cloudy,20,2013-02-27 17:50:00
8:00 PM,30,29,94,,4,NNE,4.6,,,,Mist,20,2013-02-27 18:00:00
8:20 PM,30.2,30.2,100,29.95,4.3,NNE,5.8,-,N/A,,Mostly Cloudy,30,2013-02-27 18:20:00
8:50 PM,32.0,32.0,100,29.95,1.2,East,6.9,-,N/A,Snow,Light Snow,80,2013-02-27 18:50:00
9:20 PM,30.2,30.2,100,29.95,1.0,East,6.9,-,N/A,Snow,Light Snow,100,2013-02-27 19:20:00
9:50 PM,32.0,32.0,100,29.92,2.8,East,9.2,-,N/A,,Mostly Cloudy,80,2013-02-27 19:50:00
10:20 PM,30.2,30.2,100,29.92,-9999.0,East,5.8,-,N/A,Snow,Light Snow,90,2013-02-27 20:20:00
10:50 PM,30.2,30.2,100,29.89,3.7,ENE,6.9,-,N/A,Snow,Light Snow,70,2013-02-27 20:50:00
11:20 PM,32.0,32.0,100,29.89,2.2,ENE,6.9,-,N/A,Snow,Light Snow,70,2013-02-27 21:20:00
11:50 PM,32.0,32.0,100,29.89,3.7,NNE,6.9,-,N/A,,Mostly Cloudy,30,2013-02-27 21:50:00